Simultaneous Nadir Overpasses (SNOs) Predictions

Prediction of SNOs between METOP-B and NOAA-19 Satellite Orbit:

Table of predicted SNOs for the next 14.0 days since TLE Epoch: 6/7/2019
Index Date (METOP-B) Time (METOP-B) Lat,Lon (METOP-B) SZA (METOP-B ) Date (NOAA-19) Time (NOAA-19) Lat,Lon (NOAA-19) SZA (NOAA-19 ) Distance(km) Time Diff (sec)
1 06/13/2019 07:44:21 79.31, 80.06 56.52 06/13/2019 07:43:12 79.29, 79.95 56.48 2.84 69
2 06/13/2019 08:35:03 -79.30,-112.69 123.50 06/13/2019 08:34:16 -79.28,-112.73 123.53 1.83 47
3 06/13/2019 09:25:43 79.29, 54.61 56.49 06/13/2019 09:25:12 79.27, 54.68 56.46 3.27 31
4 06/13/2019 10:16:25 -79.28,-138.14 123.53 06/13/2019 10:16:17 -79.29,-138.27 123.53 2.85 8
5 06/13/2019 11:07:05 79.28, 29.17 56.47 06/13/2019 11:07:13 79.27, 29.13 56.46 1.14 8
6 06/13/2019 11:57:47 -79.27,-163.58 123.55 06/13/2019 11:58:17 -79.26,-163.55 123.55 1.17 30
7 06/13/2019 12:48:27 79.27, 3.72 56.45 06/13/2019 12:49:14 79.28, 3.58 56.46 3.11 47
8 06/13/2019 13:39:09 -79.26, 170.97 123.57 06/13/2019 13:40:18 -79.27, 170.91 123.55 1.74 69




NCC Satellite Simultaneous Nadir Overpasses (SNOs) Prediction Service
